N997BL KSJC-KICT

Flight info

Callsign N997BL
Flight time 2h 33m
Altitude 45000
Route LOUPE1 SYRAH Q128 FLOOD J28 ICT
Aircraft C700/L-VGDW/C

Departure

Time 2026-05-06 11:46
Airport Norman Y. Mineta San Jose International Airport (KSJC)

Arrival

Time 2026-05-06 14:19
Airport Wichita Dwight D. Eisenhower National Airport (KICT)
Time Latitude Longitude Altitude Speed Heading
2026-05-06 11:36 37.35775 -121.92968 55 ft 0 kts 229°
2026-05-06 11:42 37.35771 -121.92969 55 ft 1 kts 182°
2026-05-06 11:42 37.35765 -121.92944 50 ft 7 kts 94°
2026-05-06 11:42 37.35769 -121.92872 55 ft 10 kts 108°
2026-05-06 11:43 37.35706 -121.92793 55 ft 15 kts 139°
2026-05-06 11:43 37.35630 -121.92708 55 ft 11 kts 134°
2026-05-06 11:43 37.35652 -121.92622 54 ft 13 kts 49°
2026-05-06 11:44 37.35585 -121.92422 52 ft 21 kts 138°
2026-05-06 11:44 37.35467 -121.92293 53 ft 23 kts 139°
2026-05-06 11:44 37.35341 -121.92155 52 ft 25 kts 139°
2026-05-06 11:44 37.35230 -121.92032 53 ft 16 kts 133°
2026-05-06 11:45 37.35249 -121.91921 53 ft 11 kts 52°
2026-05-06 11:45 37.35300 -121.91927 53 ft 9 kts 320°
2026-05-06 11:45 37.35416 -121.92053 58 ft 50 kts 319°
2026-05-06 11:45 37.35915 -121.92601 54 ft 138 kts 319°
2026-05-06 11:46 37.36749 -121.93512 607 ft 175 kts 321°
2026-05-06 11:46 37.37753 -121.94570 1667 ft 196 kts 318°
2026-05-06 11:46 37.38779 -121.95744 2945 ft 207 kts 318°
2026-05-06 11:46 37.40036 -121.96841 4052 ft 232 kts 342°
2026-05-06 11:47 37.41710 -121.96998 5222 ft 254 kts
2026-05-06 11:47 37.43465 -121.96937 6929 ft 251 kts
2026-05-06 11:47 37.45229 -121.96896 8436 ft 260 kts
2026-05-06 11:47 37.47059 -121.96858 9824 ft 269 kts
2026-05-06 11:48 37.48975 -121.96729 10903 ft 289 kts 12°
2026-05-06 11:48 37.50765 -121.95470 12024 ft 305 kts 44°
2026-05-06 11:48 37.52214 -121.93451 13528 ft 312 kts 47°
2026-05-06 11:48 37.53646 -121.91370 14835 ft 319 kts 48°
2026-05-06 11:49 37.55115 -121.89230 16222 ft 322 kts 47°
2026-05-06 11:49 37.56597 -121.87111 17560 ft 326 kts 46°
2026-05-06 11:49 37.58099 -121.84966 18802 ft 331 kts 46°
2026-05-06 11:49 37.59646 -121.82744 19897 ft 336 kts 46°
2026-05-06 11:50 37.61192 -121.80509 20931 ft 342 kts 47°
2026-05-06 11:50 37.62626 -121.78093 21905 ft 349 kts 53°
2026-05-06 11:50 37.64000 -121.75543 22871 ft 355 kts 53°
2026-05-06 11:50 37.65423 -121.72980 23824 ft 360 kts 53°
2026-05-06 11:51 37.66865 -121.70330 24678 ft 365 kts 53°
2026-05-06 11:51 37.68284 -121.67687 25537 ft 369 kts 53°
2026-05-06 11:51 37.69750 -121.64975 26368 ft 373 kts 53°
2026-05-06 11:51 37.71213 -121.62283 27153 ft 377 kts 53°
2026-05-06 11:52 37.72713 -121.59512 27965 ft 382 kts 53°
2026-05-06 11:52 37.74220 -121.56717 28770 ft 386 kts 53°
2026-05-06 11:52 37.75723 -121.53931 29537 ft 390 kts 53°
2026-05-06 11:52 37.77270 -121.51065 30311 ft 395 kts 53°
2026-05-06 11:53 37.78814 -121.48202 30957 ft 398 kts 53°
2026-05-06 11:53 37.80393 -121.45268 31601 ft 402 kts 53°
2026-05-06 11:53 37.81962 -121.42351 32208 ft 405 kts 53°
2026-05-06 11:53 37.83545 -121.39405 32797 ft 409 kts 53°
2026-05-06 11:54 37.85142 -121.36431 33379 ft 412 kts 53°
2026-05-06 11:54 37.86759 -121.33415 34182 ft 409 kts 53°
2026-05-06 11:54 37.88340 -121.30465 34869 ft 406 kts 53°
2026-05-06 11:54 37.89909 -121.27535 35541 ft 403 kts 53°
2026-05-06 11:55 37.91488 -121.24585 36204 ft 400 kts 53°
2026-05-06 11:55 37.93029 -121.21703 36796 ft 397 kts 53°
2026-05-06 11:55 37.94585 -121.18788 37360 ft 395 kts 53°
2026-05-06 11:55 37.96107 -121.15938 37884 ft 393 kts 52°
2026-05-06 11:56 37.97599 -121.13011 38384 ft 393 kts 57°
2026-05-06 11:56 37.98778 -121.09909 38841 ft 395 kts 63°
2026-05-06 11:56 37.99652 -121.06581 39149 ft 399 kts 70°
2026-05-06 11:56 38.00219 -121.03130 39403 ft 403 kts 74°
2026-05-06 11:57 38.00758 -120.99623 39666 ft 403 kts 73°
2026-05-06 11:57 38.01309 -120.96149 39916 ft 404 kts 73°
2026-05-06 11:57 38.01849 -120.92670 40176 ft 405 kts 73°
2026-05-06 11:57 38.02382 -120.89181 40413 ft 406 kts 74°
2026-05-06 11:58 38.02924 -120.85645 40657 ft 406 kts 73°
2026-05-06 11:58 38.03464 -120.82144 40883 ft 407 kts 74°
2026-05-06 11:58 38.04008 -120.78603 41085 ft 408 kts 74°
2026-05-06 11:58 38.04544 -120.75094 41300 ft 408 kts 74°
2026-05-06 11:59 38.05086 -120.71540 41495 ft 409 kts 74°
2026-05-06 11:59 38.05623 -120.68017 41690 ft 410 kts 74°
2026-05-06 11:59 38.06170 -120.64421 41879 ft 410 kts 74°
2026-05-06 11:59 38.06706 -120.60881 42071 ft 411 kts 74°
2026-05-06 12:00 38.07247 -120.57307 42248 ft 412 kts 74°
2026-05-06 12:00 38.07784 -120.53744 42414 ft 413 kts 74°
2026-05-06 12:00 38.08330 -120.50140 42587 ft 413 kts 74°
2026-05-06 12:00 38.08865 -120.46575 42746 ft 414 kts 74°
2026-05-06 12:01 38.09401 -120.42998 42908 ft 415 kts 74°
2026-05-06 12:01 38.09945 -120.39369 43058 ft 416 kts 75°
2026-05-06 12:01 38.10485 -120.35755 43226 ft 417 kts 75°
2026-05-06 12:01 38.11022 -120.32144 43353 ft 418 kts 75°
2026-05-06 12:02 38.11562 -120.28526 43494 ft 419 kts 75°
2026-05-06 12:02 38.12103 -120.24868 43641 ft 419 kts 75°
2026-05-06 12:02 38.12641 -120.21240 43773 ft 420 kts 75°
2026-05-06 12:02 38.13179 -120.17602 43900 ft 421 kts 75°
2026-05-06 12:03 38.13722 -120.13918 44018 ft 422 kts 75°
2026-05-06 12:03 38.14257 -120.10277 44150 ft 423 kts 75°
2026-05-06 12:03 38.14794 -120.06615 44265 ft 423 kts 75°
2026-05-06 12:03 38.15332 -120.02946 44383 ft 424 kts 75°
2026-05-06 12:04 38.15874 -119.99229 44514 ft 425 kts 76°
2026-05-06 12:04 38.16410 -119.95555 44626 ft 425 kts 76°
2026-05-06 12:04 38.16952 -119.91833 44741 ft 426 kts 76°
2026-05-06 12:04 38.17485 -119.88152 44862 ft 426 kts 76°
2026-05-06 12:05 38.18019 -119.84464 44987 ft 426 kts 76°
2026-05-06 12:05 38.18558 -119.80734 45100 ft 426 kts 76°
2026-05-06 12:05 38.19626 -119.73323 45136 ft 431 kts 76°
2026-05-06 12:06 38.20704 -119.65787 45151 ft 436 kts 76°
2026-05-06 12:06 38.21799 -119.58108 45152 ft 442 kts 76°
2026-05-06 12:07 38.22894 -119.50381 45158 ft 447 kts 76°
2026-05-06 12:07 38.24000 -119.42554 45153 ft 453 kts 76°
2026-05-06 12:08 38.25108 -119.34658 45141 ft 457 kts 76°
2026-05-06 12:08 38.26227 -119.26656 45133 ft 461 kts 76°
2026-05-06 12:09 38.27346 -119.18595 45119 ft 465 kts 77°
2026-05-06 12:09 38.28474 -119.10438 45102 ft 466 kts 77°
2026-05-06 12:10 38.29583 -119.02370 45087 ft 464 kts 77°
2026-05-06 12:10 38.30690 -118.94277 45078 ft 462 kts 77°
2026-05-06 12:11 38.31783 -118.86241 45078 ft 460 kts 77°
2026-05-06 12:11 38.32873 -118.78199 45086 ft 463 kts 77°
2026-05-06 12:12 38.33961 -118.70110 45092 ft 466 kts 77°
2026-05-06 12:12 38.35051 -118.61974 45097 ft 466 kts 77°
2026-05-06 12:13 38.36134 -118.53837 45089 ft 462 kts 77°
2026-05-06 12:13 38.37199 -118.45795 45071 ft 460 kts 77°
2026-05-06 12:14 38.38257 -118.37770 45061 ft 463 kts 77°
2026-05-06 12:14 38.39322 -118.29633 45040 ft 466 kts 77°
2026-05-06 12:15 38.40207 -118.22842 45032 ft 467 kts 77°
2026-05-06 12:15 38.41436 -118.13352 45011 ft 463 kts 77°
2026-05-06 12:16 38.42306 -118.06609 45010 ft 462 kts 77°
2026-05-06 12:16 38.43343 -117.98526 45015 ft 464 kts 77°
2026-05-06 12:17 38.44384 -117.90347 45016 ft 466 kts 77°
2026-05-06 12:17 38.45422 -117.82164 45015 ft 468 kts 77°
2026-05-06 12:18 38.46453 -117.73977 45023 ft 470 kts 77°
2026-05-06 12:18 38.47482 -117.65766 45024 ft 468 kts 77°
2026-05-06 12:19 38.48498 -117.57609 45025 ft 466 kts 77°
2026-05-06 12:19 38.49512 -117.49410 45023 ft 465 kts 77°
2026-05-06 12:20 38.50511 -117.41305 45026 ft 466 kts 77°
2026-05-06 12:20 38.51514 -117.33101 45032 ft 468 kts 77°
2026-05-06 12:21 38.52252 -117.24843 45028 ft 473 kts 83°
2026-05-06 12:21 38.52692 -117.16459 45031 ft 472 kts 82°
2026-05-06 12:22 38.53125 -117.08087 45032 ft 469 kts 83°
2026-05-06 12:22 38.53542 -116.99824 45032 ft 467 kts 83°
2026-05-06 12:23 38.53960 -116.91529 45037 ft 470 kts 83°
2026-05-06 12:23 38.54371 -116.83164 45037 ft 473 kts 83°
2026-05-06 12:24 38.54780 -116.74757 45034 ft 473 kts 83°
2026-05-06 12:24 38.55180 -116.66406 45032 ft 471 kts 83°
2026-05-06 12:25 38.55574 -116.58055 45028 ft 469 kts 83°
2026-05-06 12:25 38.55959 -116.49782 45021 ft 470 kts 83°
2026-05-06 12:26 38.56344 -116.41385 45023 ft 473 kts 83°
2026-05-06 12:26 38.56719 -116.33015 45019 ft 476 kts 83°
2026-05-06 12:27 38.57097 -116.24540 45017 ft 475 kts 83°
2026-05-06 12:27 38.57460 -116.16162 45017 ft 472 kts 83°
2026-05-06 12:28 38.57820 -116.07834 45016 ft 472 kts 84°
2026-05-06 12:28 38.58173 -115.99422 45018 ft 475 kts 84°
2026-05-06 12:29 38.58526 -115.90928 45018 ft 479 kts 84°
2026-05-06 12:29 38.58869 -115.82463 45020 ft 478 kts 84°
2026-05-06 12:30 38.59210 -115.73990 45016 ft 476 kts 84°
2026-05-06 12:30 38.59541 -115.65533 45015 ft 476 kts 84°
2026-05-06 12:31 38.59869 -115.57065 45019 ft 477 kts 84°
2026-05-06 12:31 38.60188 -115.48610 45013 ft 479 kts 84°
2026-05-06 12:32 38.60506 -115.40060 45015 ft 481 kts 84°
2026-05-06 12:32 38.60814 -115.31548 45012 ft 482 kts 84°
2026-05-06 12:33 38.61121 -115.22988 45011 ft 484 kts 84°
2026-05-06 12:33 38.61420 -115.14379 45007 ft 484 kts 85°
2026-05-06 12:34 38.61713 -115.05823 45003 ft 482 kts 85°
2026-05-06 12:34 38.61999 -114.97258 45003 ft 481 kts 85°
2026-05-06 12:35 38.62280 -114.88708 45000 ft 484 kts 85°
2026-05-06 12:35 38.62554 -114.80098 45000 ft 486 kts 85°
2026-05-06 12:36 38.62825 -114.71448 44999 ft 488 kts 85°
2026-05-06 12:36 38.63089 -114.62785 44997 ft 486 kts 85°
2026-05-06 12:37 38.63345 -114.54200 44995 ft 485 kts 85°
2026-05-06 12:37 38.63595 -114.45585 44989 ft 484 kts 85°
2026-05-06 12:38 38.63839 -114.36971 44995 ft 487 kts 85°
2026-05-06 12:38 38.64078 -114.28270 44987 ft 490 kts 85°
2026-05-06 12:39 38.64312 -114.19591 44986 ft 491 kts 85°
2026-05-06 12:39 38.64539 -114.10857 44987 ft 490 kts 85°
2026-05-06 12:40 38.64760 -114.02138 44985 ft 489 kts 85°
2026-05-06 12:40 38.64972 -113.93472 44979 ft 488 kts 85°
2026-05-06 12:41 38.65181 -113.84812 44980 ft 490 kts 86°
2026-05-06 12:41 38.65381 -113.76110 44974 ft 492 kts 86°
2026-05-06 12:42 38.65578 -113.67331 44971 ft 494 kts 86°
2026-05-06 12:42 38.65767 -113.58567 44967 ft 496 kts 86°
2026-05-06 12:43 38.65951 -113.49733 44966 ft 493 kts 86°
2026-05-06 12:43 38.66127 -113.41006 44966 ft 490 kts 86°
2026-05-06 12:44 38.66296 -113.32310 44969 ft 492 kts 86°
2026-05-06 12:44 38.66459 -113.23559 44985 ft 495 kts 86°
2026-05-06 12:45 38.66616 -113.14731 44994 ft 497 kts 86°
2026-05-06 12:46 38.66836 -113.01520 44998 ft 494 kts 86°
2026-05-06 12:46 38.66975 -112.92715 44994 ft 492 kts 86°
2026-05-06 12:47 38.67107 -112.83969 44985 ft 495 kts 86°
2026-05-06 12:47 38.67233 -112.75102 44973 ft 499 kts 86°
2026-05-06 12:48 38.67352 -112.66264 44961 ft 498 kts 87°
2026-05-06 12:48 38.67466 -112.57393 44981 ft 496 kts 87°
2026-05-06 12:49 38.67571 -112.48610 44999 ft 495 kts 87°
2026-05-06 12:49 38.67670 -112.39825 44997 ft 496 kts 87°
2026-05-06 12:50 38.67761 -112.30961 45003 ft 499 kts 87°
2026-05-06 12:50 38.67853 -112.22111 44989 ft 500 kts 87°
2026-05-06 12:51 38.67928 -112.13185 44975 ft 500 kts 87°
2026-05-06 12:51 38.68004 -112.04281 44959 ft 502 kts 87°
2026-05-06 12:52 38.68069 -111.95385 44953 ft 502 kts 87°
2026-05-06 12:52 38.68130 -111.86485 44952 ft 499 kts 87°
2026-05-06 12:53 38.68182 -111.77623 44942 ft 498 kts 87°
2026-05-06 12:53 38.68230 -111.68712 44937 ft 501 kts 88°
2026-05-06 12:54 38.68268 -111.59840 44927 ft 503 kts 88°
2026-05-06 12:54 38.68302 -111.50857 44915 ft 504 kts 88°
2026-05-06 12:55 38.68324 -111.41883 44902 ft 503 kts 88°
2026-05-06 12:55 38.68352 -111.32934 44896 ft 502 kts 88°
2026-05-06 12:56 38.68357 -111.24033 44881 ft 502 kts 88°
2026-05-06 12:56 38.68367 -111.15104 44874 ft 504 kts 88°
2026-05-06 12:57 38.68363 -111.06073 44863 ft 507 kts 88°
2026-05-06 12:57 38.68357 -110.97070 44878 ft 508 kts 88°
2026-05-06 12:58 38.68341 -110.87984 44894 ft 508 kts 88°
2026-05-06 12:58 38.68320 -110.79024 44901 ft 505 kts 88°
2026-05-06 12:59 38.68292 -110.70034 44905 ft 504 kts 88°
2026-05-06 12:59 38.68255 -110.61081 44894 ft 507 kts 89°
2026-05-06 13:00 38.68213 -110.52001 44881 ft 510 kts 89°
2026-05-06 13:00 38.68162 -110.42959 44848 ft 509 kts 89°
2026-05-06 13:01 38.68107 -110.33918 44832 ft 506 kts 89°
2026-05-06 13:01 38.68042 -110.24911 44841 ft 506 kts 89°
2026-05-06 13:02 38.67973 -110.15914 44859 ft 509 kts 89°
2026-05-06 13:02 38.67895 -110.06810 44905 ft 511 kts 89°
2026-05-06 13:03 38.67810 -109.97747 44946 ft 512 kts 90°
2026-05-06 13:03 38.67514 -109.88648 44988 ft 511 kts 93°
2026-05-06 13:04 38.67050 -109.79563 45014 ft 509 kts 93°
2026-05-06 13:04 38.66608 -109.70571 45011 ft 509 kts 94°
2026-05-06 13:05 38.66136 -109.61520 44979 ft 511 kts 93°
2026-05-06 13:05 38.65668 -109.52391 44944 ft 515 kts 94°
2026-05-06 13:06 38.65181 -109.43233 44902 ft 516 kts 94°
2026-05-06 13:06 38.64697 -109.34140 44858 ft 514 kts 94°
2026-05-06 13:07 38.64197 -109.24998 44845 ft 514 kts 94°
2026-05-06 13:07 38.63698 -109.15904 44840 ft 514 kts 94°
2026-05-06 13:08 38.63186 -109.06758 44840 ft 514 kts 94°
2026-05-06 13:08 38.62672 -108.97689 44834 ft 515 kts 94°
2026-05-06 13:09 38.62146 -108.88521 44837 ft 517 kts 95°
2026-05-06 13:09 38.61610 -108.79348 44842 ft 521 kts 95°
2026-05-06 13:10 38.61064 -108.70076 44845 ft 521 kts 95°
2026-05-06 13:10 38.60513 -108.60884 44840 ft 520 kts 95°
2026-05-06 13:11 38.59956 -108.51690 44836 ft 519 kts 95°
2026-05-06 13:11 38.59388 -108.42461 44840 ft 519 kts 95°
2026-05-06 13:12 38.58819 -108.33293 44870 ft 521 kts 95°
2026-05-06 13:12 38.58236 -108.24039 44900 ft 523 kts 95°
2026-05-06 13:13 38.57641 -108.14749 44907 ft 525 kts 95°
2026-05-06 13:13 38.57041 -108.05428 44950 ft 526 kts 95°
2026-05-06 13:14 38.56430 -107.96106 44982 ft 526 kts 95°
2026-05-06 13:14 38.55814 -107.86797 44978 ft 526 kts 95°
2026-05-06 13:15 38.55193 -107.77537 44975 ft 526 kts 95°
2026-05-06 13:15 38.54562 -107.68229 44932 ft 526 kts 95°
2026-05-06 13:16 38.53925 -107.58942 44903 ft 524 kts 95°
2026-05-06 13:16 38.53282 -107.49682 44848 ft 524 kts 96°
2026-05-06 13:17 38.52740 -107.41963 44818 ft 526 kts 96°
2026-05-06 13:17 38.52080 -107.32637 44856 ft 529 kts 96°
2026-05-06 13:18 38.51406 -107.23265 44896 ft 529 kts 96°
2026-05-06 13:18 38.50731 -107.13932 44934 ft 527 kts 96°
2026-05-06 13:19 38.50048 -107.04639 44980 ft 525 kts 96°
2026-05-06 13:19 38.49359 -106.95336 44981 ft 527 kts 96°
2026-05-06 13:20 38.48663 -106.86055 44985 ft 530 kts 96°
2026-05-06 13:20 38.47953 -106.76682 44958 ft 530 kts 96°
2026-05-06 13:21 38.47239 -106.67340 44911 ft 527 kts 96°
2026-05-06 13:21 38.46519 -106.58051 44867 ft 524 kts 96°
2026-05-06 13:22 38.45794 -106.48758 44829 ft 527 kts 96°
2026-05-06 13:22 38.45056 -106.39417 44891 ft 531 kts 96°
2026-05-06 13:23 38.44311 -106.30088 44944 ft 530 kts 97°
2026-05-06 13:23 38.43561 -106.20764 44984 ft 526 kts 97°
2026-05-06 13:24 38.42806 -106.11497 45003 ft 526 kts 97°
2026-05-06 13:24 38.42045 -106.02246 45025 ft 529 kts 97°
2026-05-06 13:25 38.41269 -105.92897 45024 ft 532 kts 97°
2026-05-06 13:25 38.40487 -105.83553 45007 ft 527 kts 97°
2026-05-06 13:26 38.39699 -105.74262 45010 ft 527 kts 97°
2026-05-06 13:26 38.38906 -105.64963 45025 ft 527 kts 97°
2026-05-06 13:27 38.38109 -105.55725 45036 ft 527 kts 98°
2026-05-06 13:27 38.37299 -105.46445 45056 ft 527 kts 98°
2026-05-06 13:28 38.36484 -105.37134 45074 ft 530 kts 98°
2026-05-06 13:28 38.35652 -105.27777 45101 ft 532 kts 98°
2026-05-06 13:29 38.34814 -105.18400 45118 ft 534 kts 98°
2026-05-06 13:29 38.33972 -105.08991 45140 ft 534 kts 97°
2026-05-06 13:30 38.33359 -104.99549 45149 ft 535 kts 96°
2026-05-06 13:30 38.32704 -104.90101 45145 ft 535 kts 96°
2026-05-06 13:31 38.32073 -104.80636 45132 ft 536 kts 97°
2026-05-06 13:31 38.31417 -104.71234 45121 ft 537 kts 97°
2026-05-06 13:32 38.30763 -104.61763 45109 ft 537 kts 97°
2026-05-06 13:32 38.30090 -104.52286 45110 ft 537 kts 97°
2026-05-06 13:33 38.29416 -104.42791 45108 ft 538 kts 97°
2026-05-06 13:33 38.28614 -104.33385 45111 ft 538 kts 99°
2026-05-06 13:34 38.27784 -104.23918 45112 ft 538 kts 98°
2026-05-06 13:34 38.26972 -104.14443 45116 ft 538 kts 99°
2026-05-06 13:35 38.26125 -104.04970 45112 ft 539 kts 98°
2026-05-06 13:35 38.25293 -103.95476 45115 ft 539 kts 99°
2026-05-06 13:36 38.24434 -103.85997 45111 ft 539 kts 99°
2026-05-06 13:36 38.23584 -103.76527 45111 ft 539 kts 99°
2026-05-06 13:37 38.22713 -103.67050 45114 ft 539 kts 99°
2026-05-06 13:37 38.21850 -103.57639 45116 ft 539 kts 99°
2026-05-06 13:38 38.20966 -103.48161 45114 ft 539 kts 99°
2026-05-06 13:38 38.20080 -103.38683 45117 ft 540 kts 99°
2026-05-06 13:39 38.19178 -103.29176 45117 ft 543 kts 99°
2026-05-06 13:39 38.18267 -103.19623 45111 ft 546 kts 99°
2026-05-06 13:40 38.17344 -103.10035 45112 ft 547 kts 99°
2026-05-06 13:40 38.16414 -103.00453 45125 ft 544 kts 100°
2026-05-06 13:41 38.15480 -102.90917 45134 ft 542 kts 100°
2026-05-06 13:41 38.14544 -102.81456 45145 ft 544 kts 100°
2026-05-06 13:42 38.13592 -102.71889 45149 ft 547 kts 100°
2026-05-06 13:42 38.12625 -102.62269 45152 ft 549 kts 100°
2026-05-06 13:43 38.11652 -102.52655 45159 ft 548 kts 100°
2026-05-06 13:43 38.10673 -102.43077 45139 ft 546 kts 100°
2026-05-06 13:44 38.09695 -102.33573 45131 ft 545 kts 101°
2026-05-06 13:44 38.08699 -102.23986 45125 ft 548 kts 101°
2026-05-06 13:45 38.07691 -102.14350 45122 ft 551 kts 101°
2026-05-06 13:45 38.06166 -101.99925 45128 ft 552 kts 101°
2026-05-06 13:46 38.05136 -101.90271 45124 ft 550 kts 101°
2026-05-06 13:46 38.04101 -101.80663 45125 ft 549 kts 101°
2026-05-06 13:47 38.03058 -101.71047 45140 ft 551 kts 101°
2026-05-06 13:47 38.02003 -101.61392 45136 ft 554 kts 101°
2026-05-06 13:48 38.00941 -101.51744 45144 ft 556 kts 101°
2026-05-06 13:48 37.99865 -101.42056 45145 ft 554 kts 101°
2026-05-06 13:49 37.98785 -101.32400 45147 ft 552 kts 101°
2026-05-06 13:49 37.97700 -101.22777 45157 ft 551 kts 101°
2026-05-06 13:50 37.96605 -101.13137 45160 ft 554 kts 101°
2026-05-06 13:50 37.95496 -101.03441 45161 ft 557 kts 102°
2026-05-06 13:51 37.94385 -100.93797 45160 ft 555 kts 102°
2026-05-06 13:51 37.93263 -100.84135 45155 ft 553 kts 102°
2026-05-06 13:52 37.92139 -100.74523 45157 ft 551 kts 102°
2026-05-06 13:52 37.91581 -100.64781 45159 ft 557 kts 95°
2026-05-06 13:53 37.91151 -100.54968 45160 ft 559 kts 96°
2026-05-06 13:53 37.90722 -100.45113 45164 ft 560 kts 95°
2026-05-06 13:54 37.90286 -100.35332 45063 ft 559 kts 96°
2026-05-06 13:54 37.90058 -100.30415 44322 ft 561 kts 96°
2026-05-06 13:54 37.89837 -100.25479 43587 ft 556 kts 96°
2026-05-06 13:55 37.89620 -100.20644 42868 ft 550 kts 97°
2026-05-06 13:55 37.89393 -100.15815 42153 ft 545 kts 98°
2026-05-06 13:55 37.89166 -100.11078 41448 ft 544 kts 98°
2026-05-06 13:55 37.88936 -100.06248 40729 ft 547 kts 99°
2026-05-06 13:56 37.88706 -100.01421 40013 ft 556 kts 99°
2026-05-06 13:56 37.88465 -99.96466 39274 ft 568 kts 100°
2026-05-06 13:56 37.88221 -99.91475 38471 ft 578 kts 101°
2026-05-06 13:56 37.87976 -99.86380 37696 ft 578 kts 101°
2026-05-06 13:57 37.87731 -99.81288 36934 ft 577 kts 101°
2026-05-06 13:57 37.87475 -99.76215 36179 ft 575 kts 101°
2026-05-06 13:57 37.87218 -99.71195 35428 ft 574 kts 102°
2026-05-06 13:57 37.86963 -99.66144 34669 ft 574 kts 102°
2026-05-06 13:58 37.86708 -99.61142 33884 ft 577 kts 102°
2026-05-06 13:58 37.86446 -99.56089 33113 ft 577 kts 102°
2026-05-06 13:58 37.86184 -99.51031 32356 ft 577 kts 102°
2026-05-06 13:58 37.85915 -99.45916 31587 ft 577 kts 101°
2026-05-06 13:59 37.85647 -99.40859 30828 ft 577 kts 101°
2026-05-06 13:59 37.85378 -99.35817 30030 ft 578 kts 101°
2026-05-06 13:59 37.85110 -99.30781 29253 ft 569 kts 100°
2026-05-06 13:59 37.84846 -99.25804 28508 ft 557 kts 100°
2026-05-06 14:00 37.84581 -99.20961 27783 ft 545 kts 100°
2026-05-06 14:00 37.84317 -99.16248 27074 ft 533 kts 100°
2026-05-06 14:00 37.84062 -99.11659 26389 ft 523 kts 100°
2026-05-06 14:00 37.83808 -99.07086 25702 ft 515 kts 99°
2026-05-06 14:01 37.83555 -99.02586 25028 ft 507 kts 99°
2026-05-06 14:01 37.83307 -98.98214 24377 ft 499 kts 99°
2026-05-06 14:01 37.83060 -98.93883 23717 ft 492 kts 99°
2026-05-06 14:01 37.82813 -98.89562 23019 ft 482 kts 99°
2026-05-06 14:02 37.82572 -98.85372 22389 ft 476 kts 99°
2026-05-06 14:02 37.82329 -98.81242 21771 ft 475 kts 99°
2026-05-06 14:02 37.82082 -98.77035 21140 ft 473 kts 98°
2026-05-06 14:02 37.81845 -98.72956 20531 ft 470 kts 98°
2026-05-06 14:03 37.81601 -98.68820 19910 ft 465 kts 98°
2026-05-06 14:03 37.81360 -98.64772 19301 ft 460 kts 98°
2026-05-06 14:03 37.81120 -98.60763 18696 ft 456 kts 98°
2026-05-06 14:03 37.80880 -98.56777 18060 ft 452 kts 98°
2026-05-06 14:04 37.80642 -98.52827 17461 ft 445 kts 98°
2026-05-06 14:04 37.80407 -98.48958 16757 ft 442 kts 97°
2026-05-06 14:04 37.80170 -98.45110 16136 ft 436 kts 97°
2026-05-06 14:04 37.79938 -98.41315 15561 ft 429 kts 97°
2026-05-06 14:05 37.79707 -98.37594 14996 ft 425 kts 97°
2026-05-06 14:05 37.79476 -98.33890 14441 ft 422 kts 96°
2026-05-06 14:05 37.79246 -98.30215 13868 ft 419 kts 96°
2026-05-06 14:05 37.78972 -98.27770 13446 ft 411 kts 105°
2026-05-06 14:06 37.77997 -98.24535 12893 ft 386 kts 118°
2026-05-06 14:06 37.76390 -98.20674 12200 ft 360 kts 122°
2026-05-06 14:06 37.75172 -98.17988 11688 ft 345 kts 122°
2026-05-06 14:06 37.74365 -98.16267 11351 ft 337 kts 123°
2026-05-06 14:07 37.73165 -98.13779 10899 ft 323 kts 123°
2026-05-06 14:07 37.71994 -98.11421 10532 ft 310 kts 123°
2026-05-06 14:07 37.70849 -98.09169 10152 ft 299 kts 123°
2026-05-06 14:07 37.69730 -98.07030 9764 ft 291 kts 123°
2026-05-06 14:08 37.68590 -98.04903 9352 ft 288 kts 123°
2026-05-06 14:08 37.67462 -98.02830 8952 ft 286 kts 123°
2026-05-06 14:08 37.66329 -98.00770 8563 ft 285 kts 123°
2026-05-06 14:08 37.65200 -97.98752 8171 ft 280 kts 123°
2026-05-06 14:09 37.64079 -97.96766 7786 ft 276 kts 123°
2026-05-06 14:09 37.62968 -97.94808 7407 ft 272 kts 123°
2026-05-06 14:09 37.61860 -97.92865 7029 ft 268 kts 123°
2026-05-06 14:09 37.60916 -97.90876 6645 ft 264 kts 115°
2026-05-06 14:10 37.60110 -97.88825 6342 ft 259 kts 114°
2026-05-06 14:10 37.59330 -97.86789 6082 ft 259 kts 114°
2026-05-06 14:10 37.58550 -97.84735 5814 ft 259 kts 113°
2026-05-06 14:10 37.57775 -97.82680 5557 ft 259 kts 113°
2026-05-06 14:11 37.57006 -97.80640 5308 ft 258 kts 113°
2026-05-06 14:11 37.56240 -97.78610 5048 ft 256 kts 113°
2026-05-06 14:11 37.55480 -97.76599 4799 ft 255 kts 113°
2026-05-06 14:11 37.54712 -97.74571 4532 ft 253 kts 113°
2026-05-06 14:12 37.53957 -97.72591 4277 ft 252 kts 113°
2026-05-06 14:12 37.53189 -97.70594 4019 ft 252 kts 113°
2026-05-06 14:12 37.52424 -97.68626 3762 ft 251 kts 113°
2026-05-06 14:12 37.51649 -97.66645 3511 ft 250 kts 113°
2026-05-06 14:13 37.50881 -97.64696 3251 ft 249 kts 113°
2026-05-06 14:13 37.50112 -97.62757 3008 ft 248 kts 113°
2026-05-06 14:13 37.49344 -97.60840 2995 ft 245 kts 113°
2026-05-06 14:13 37.48565 -97.58902 3000 ft 249 kts 113°
2026-05-06 14:14 37.47782 -97.56956 2992 ft 249 kts 113°
2026-05-06 14:14 37.47074 -97.55018 2988 ft 232 kts 102°
2026-05-06 14:14 37.47130 -97.53140 2975 ft 210 kts 67°
2026-05-06 14:14 37.47880 -97.51619 2976 ft 200 kts 53°
2026-05-06 14:15 37.48739 -97.50246 2984 ft 201 kts 44°
2026-05-06 14:15 37.49907 -97.49309 2985 ft 200 kts 26°
2026-05-06 14:15 37.51198 -97.48632 2994 ft 202 kts 24°
2026-05-06 14:15 37.52511 -97.48006 2990 ft 202 kts 21°
2026-05-06 14:16 37.53819 -97.47430 2992 ft 196 kts 21°
2026-05-06 14:16 37.55017 -97.46871 3001 ft 168 kts 23°
2026-05-06 14:16 37.56059 -97.46396 2987 ft 158 kts 22°
2026-05-06 14:16 37.57085 -97.45933 2828 ft 145 kts 23°
2026-05-06 14:17 37.57924 -97.45536 2644 ft 121 kts 22°
2026-05-06 14:17 37.58719 -97.45184 2494 ft 122 kts 22°
2026-05-06 14:17 37.59515 -97.44807 2331 ft 121 kts 22°
2026-05-06 14:17 37.60307 -97.44455 2156 ft 121 kts 21°
2026-05-06 14:18 37.61091 -97.44086 1996 ft 122 kts 20°
2026-05-06 14:18 37.61901 -97.43719 1818 ft 123 kts 20°
2026-05-06 14:18 37.62709 -97.43350 1666 ft 125 kts 19°
2026-05-06 14:18 37.63521 -97.42978 1525 ft 125 kts 20°
2026-05-06 14:19 37.64360 -97.42590 1361 ft 128 kts 19°
2026-05-06 14:19 37.65106 -97.42251 1319 ft 91 kts 19°
2026-05-06 14:19 37.65511 -97.42065 1326 ft 35 kts 20°
2026-05-06 14:19 37.65657 -97.42031 1327 ft 17 kts 324°
2026-05-06 14:20 37.65712 -97.42171 1329 ft 19 kts 290°
2026-05-06 14:20 37.65752 -97.42310 1327 ft 11 kts 294°
2026-05-06 14:20 37.65821 -97.42308 1327 ft 10 kts 19°
2026-05-06 14:20 37.65869 -97.42299 1327 ft 4 kts 312°
2026-05-06 14:21 37.65874 -97.42318 1327 ft 0 kts 287°